Wolf Creek Pass, CO

3:45 AM MST on February 24, 2018 (GMT -0700)
Wolf Creek Pass

Weather History for KCPW - November, 2013

Change the Weather History Date:

Thursday, November 14, 2013

  Actual Average (KALS) Record (KALS)
Temperature  
Mean Temperature 26 °F -  
Max Temperature 33 °F 47 °F 67 °F (2017)
Min Temperature 19 °F 13 °F -5 °F (1940)
Degree Days  
Heating Degree Days 39    
Moisture  
Dew Point 16 °F    
Average Humidity 72    
Maximum Humidity 100    
Minimum Humidity 37    
Precipitation  
Precipitation 0.00 in - - ()
Sea Level Pressure  
Sea Level Pressure 30.19 in    
Wind  
Wind Speed 11 mph (WSW)    
Max Wind Speed 26 mph    
Max Gust Speed 31 mph    
Visibility 10 miles    
Events      
Averages and records for this station are not official NWS values.
T = Trace of Precipitation, MM = Missing Value Source: NWS Daily Summary

Daily Weather History Graph

Daily Weather History Graph

Search for Another Location

Airport or City:

Trip Planner

Search our weather history database for the weather conditions in past years. The results will help you decide how hot, cold, wet, or windy it might be!

Date:

Astronomy

Nov. 14, 2013 Rise Set
Actual Time 6:45 AM MST 4:57 PM MST
Civil Twilight 6:18 AM MST 5:24 PM MST
Nautical Twilight 5:46 AM MST 5:56 PM MST
Astronomical Twilight 5:15 AM MST 6:27 PM MST
Moon 3:17 PM MST (11/14) 3:47 AM MST (11/14)
Length of Visible Light 11h 06m
Length of Day
10h 11m
Waxing Gibbous, 92% of the Moon is Illuminated
Nov 14
Waxing Gibbous
Nov 17
Full
Nov 25
Last Quarter
Dec 2
New
Dec 9
First Quarter

Hourly Weather History & Observations

Time (MST) Temp. Windchill Dew Point Humidity Pressure Visibility Wind Dir Wind Speed Gust Speed Precip Events Conditions
12:09 AM 23.0 °F 10.6 °F 19.4 °F 86% 30.29 in 10.0 mi SW 13.8 mph - N/A   Scattered Clouds
12:29 AM 23.0 °F 11.1 °F 21.2 °F 93% 30.28 in 10.0 mi SW 12.7 mph - N/A   Scattered Clouds
12:49 AM 23.0 °F 12.4 °F 21.2 °F 93% 30.27 in 10.0 mi SSW 10.4 mph - N/A   Mostly Cloudy
1:09 AM 23.0 °F 11.7 °F 19.4 °F 86% 30.27 in 10.0 mi SSW 11.5 mph - N/A   Overcast
1:29 AM 23.0 °F 13.9 °F 19.4 °F 86% 30.27 in 10.0 mi SSW 8.1 mph - N/A   Mostly Cloudy
1:49 AM 23.0 °F 13.9 °F 19.4 °F 86% 30.26 in 10.0 mi SSW 8.1 mph - N/A   Scattered Clouds
2:09 AM 23.0 °F 15.8 °F 19.4 °F 86% 30.26 in 10.0 mi SW 5.8 mph - N/A   Clear
2:29 AM 23.0 °F 18.4 °F 17.6 °F 80% 30.26 in 10.0 mi WSW 3.5 mph - N/A   Clear
2:49 AM 23.0 °F 18.4 °F 17.6 °F 80% 30.26 in 10.0 mi West 3.5 mph - N/A   Clear
3:09 AM 24.8 °F - 14.0 °F 64% 30.25 in 10.0 mi Calm Calm - N/A   Scattered Clouds
3:29 AM 26.6 °F 20.0 °F 12.2 °F 55% 30.24 in 10.0 mi North 5.8 mph - N/A   Mostly Cloudy
3:49 AM 26.6 °F 21.2 °F 12.2 °F 55% 30.24 in 10.0 mi North 4.6 mph - N/A   Overcast
4:09 AM 24.8 °F 19.1 °F 12.2 °F 59% 30.24 in 10.0 mi North 4.6 mph - N/A   Overcast
4:29 AM 26.6 °F 21.2 °F 12.2 °F 55% 30.24 in 10.0 mi NNW 4.6 mph - N/A   Overcast
4:49 AM 24.8 °F 19.1 °F 12.2 °F 59% 30.24 in 10.0 mi NNW 4.6 mph - N/A   Overcast
5:09 AM 24.8 °F 17.9 °F 12.2 °F 59% 30.23 in 10.0 mi North 5.8 mph - N/A   Overcast
5:29 AM 24.8 °F 16.1 °F 12.2 °F 59% 30.23 in 10.0 mi NNE 8.1 mph - N/A   Overcast
5:49 AM 24.8 °F 16.9 °F 12.2 °F 59% 30.23 in 10.0 mi North 6.9 mph - N/A   Overcast
6:09 AM 23.0 °F 14.7 °F 12.2 °F 63% 30.23 in 10.0 mi NE 6.9 mph - N/A   Mostly Cloudy
6:29 AM 23.0 °F 12.4 °F 12.2 °F 63% 30.23 in 10.0 mi NE 10.4 mph - N/A   Mostly Cloudy
6:49 AM 23.0 °F 12.4 °F 12.2 °F 63% 30.22 in 10.0 mi NE 10.4 mph - N/A   Mostly Cloudy
7:09 AM 23.0 °F 13.9 °F 14.0 °F 68% 30.23 in 10.0 mi NE 8.1 mph - N/A   Overcast
7:29 AM 23.0 °F 11.7 °F 14.0 °F 68% 30.23 in 10.0 mi NE 11.5 mph - N/A   Overcast
7:49 AM 23.0 °F 12.4 °F 14.0 °F 68% 30.23 in 10.0 mi NE 10.4 mph - N/A   Overcast
8:09 AM 23.0 °F 10.1 °F 14.0 °F 68% 30.24 in 10.0 mi NNE 15.0 mph - N/A   Overcast
8:29 AM 23.0 °F 12.4 °F 15.8 °F 74% 30.24 in 10.0 mi NE 10.4 mph 16.1 mph N/A   Overcast
8:49 AM 23.0 °F 13.1 °F 15.8 °F 74% 30.24 in 10.0 mi NE 9.2 mph 19.6 mph N/A   Overcast
9:09 AM 24.8 °F 12.9 °F 17.6 °F 74% 30.24 in 10.0 mi NE 13.8 mph 18.4 mph N/A   Mostly Cloudy
9:29 AM 23.0 °F 11.7 °F 15.8 °F 74% 30.24 in 10.0 mi North 11.5 mph - N/A   Mostly Cloudy
9:49 AM 26.6 °F 14.7 °F 15.8 °F 64% 30.24 in 10.0 mi NE 15.0 mph - N/A   Scattered Clouds
10:09 AM 26.6 °F 15.2 °F 17.6 °F 69% 30.24 in 10.0 mi NE 13.8 mph 18.4 mph N/A   Clear
10:29 AM 26.6 °F 17.5 °F 15.8 °F 64% 30.24 in 10.0 mi NE 9.2 mph - N/A   Clear
10:49 AM 28.4 °F 24.6 °F 14.0 °F 55% 30.24 in 10.0 mi ENE 3.5 mph - N/A   Clear
11:09 AM 28.4 °F - 14.0 °F 55% 30.24 in 10.0 mi Calm Calm - N/A   Clear
11:29 AM 30.2 °F - 14.0 °F 51% 30.23 in 10.0 mi Calm Calm - N/A   Clear
11:49 AM 28.4 °F - 12.2 °F 51% 30.22 in 10.0 mi Calm Calm - N/A   Clear
12:09 PM 28.4 °F - 12.2 °F 51% 30.22 in 10.0 mi Calm Calm - N/A   Clear
12:29 PM 30.2 °F - 10.4 °F 44% 30.20 in 10.0 mi Calm Calm - N/A   Clear
12:49 PM 30.2 °F - 6.8 °F 37% 30.20 in 10.0 mi Calm Calm - N/A   Clear
1:09 PM 30.2 °F 26.7 °F 12.2 °F 47% 30.19 in 10.0 mi WNW 3.5 mph - N/A   Clear
1:29 PM 30.2 °F 26.7 °F 14.0 °F 51% 30.19 in 10.0 mi NW 3.5 mph - N/A   Clear
1:49 PM 32.0 °F 24.8 °F 15.8 °F 51% 30.19 in 10.0 mi West 8.1 mph - N/A   Scattered Clouds
2:09 PM 32.0 °F - 14.0 °F 48% 30.18 in 10.0 mi Calm Calm - N/A   Scattered Clouds
2:29 PM 33.8 °F 26.4 °F 12.2 °F 41% 30.17 in 10.0 mi WSW 9.2 mph - N/A   Clear
2:49 PM 32.0 °F 22.1 °F 15.8 °F 51% 30.17 in 10.0 mi WSW 13.8 mph 18.4 mph N/A   Clear
3:09 PM 32.0 °F 22.5 °F 17.6 °F 55% 30.16 in 10.0 mi SW 12.7 mph 21.9 mph N/A   Scattered Clouds
3:29 PM 32.0 °F 24.2 °F 17.6 °F 55% 30.16 in 10.0 mi SSW 9.2 mph 25.3 mph N/A   Scattered Clouds
3:49 PM 32.0 °F 19.5 °F 17.6 °F 55% 30.15 in 10.0 mi SW 21.9 mph 28.8 mph N/A   Mostly Cloudy
4:09 PM 30.2 °F 18.9 °F 17.6 °F 60% 30.15 in 10.0 mi SW 16.1 mph 28.8 mph N/A   Scattered Clouds
4:29 PM 28.4 °F 15.1 °F 19.4 °F 69% 30.15 in 10.0 mi SW 20.7 mph 26.5 mph N/A   Scattered Clouds
4:49 PM 26.6 °F 13.4 °F 19.4 °F 74% 30.15 in 10.0 mi SW 18.4 mph 23.0 mph N/A   Clear
5:09 PM 26.6 °F 13.8 °F 19.4 °F 74% 30.15 in 10.0 mi SW 17.3 mph 24.2 mph N/A   Clear
5:29 PM 26.6 °F 14.3 °F 19.4 °F 74% 30.14 in 10.0 mi SW 16.1 mph 21.9 mph N/A   Clear
5:49 PM 24.8 °F 8.7 °F 21.2 °F 86% 30.14 in 10.0 mi SW 26.5 mph 31.1 mph N/A   Scattered Clouds
6:09 PM 24.8 °F 11.1 °F 21.2 °F 86% 30.15 in 10.0 mi SW 18.4 mph 25.3 mph N/A   Mostly Cloudy
6:29 PM 23.0 °F 9.6 °F 21.2 °F 93% 30.14 in 10.0 mi SSW 16.1 mph 26.5 mph N/A   Scattered Clouds
6:49 PM 23.0 °F 9.2 °F 21.2 °F 93% 30.14 in 10.0 mi SW 17.3 mph 24.2 mph N/A   Clear
7:09 PM 23.0 °F 8.7 °F 21.2 °F 93% 30.14 in 10.0 mi SW 18.4 mph 25.3 mph N/A   Clear
7:29 PM 23.0 °F 7.2 °F 21.2 °F 93% 30.14 in 10.0 mi SW 23.0 mph 28.8 mph N/A   Clear
7:49 PM 23.0 °F 8.3 °F 19.4 °F 86% 30.13 in 10.0 mi SW 19.6 mph 28.8 mph N/A   Clear
8:09 PM 21.2 °F 6.4 °F 19.4 °F 93% 30.12 in 10.0 mi SW 18.4 mph - N/A   Clear
8:29 PM 21.2 °F 6.8 °F 19.4 °F 93% 30.12 in 10.0 mi SW 17.3 mph - N/A   Clear
8:49 PM 21.2 °F 6.4 °F 19.4 °F 93% 30.12 in 10.0 mi SW 18.4 mph 23.0 mph N/A   Clear
9:09 PM 21.2 °F 6.8 °F 19.4 °F 93% 30.11 in 10.0 mi SW 17.3 mph 25.3 mph N/A   Clear
9:29 PM 21.2 °F 5.2 °F 19.4 °F 93% 30.11 in 10.0 mi SW 21.9 mph 28.8 mph N/A   Clear
9:49 PM 21.2 °F 5.2 °F 19.4 °F 93% 30.11 in 10.0 mi SW 21.9 mph 26.5 mph N/A   Clear
10:09 PM 19.4 °F 2.8 °F 19.4 °F 100% 30.09 in 10.0 mi SW 21.9 mph 28.8 mph N/A   Clear
10:29 PM 19.4 °F 1.8 °F 19.4 °F 100% 30.08 in 10.0 mi SW 25.3 mph 28.8 mph N/A   Clear
10:49 PM 19.4 °F 2.5 °F 19.4 °F 100% 30.08 in 10.0 mi SW 23.0 mph 27.6 mph N/A   Clear
11:09 PM 19.4 °F 2.5 °F 19.4 °F 100% 30.07 in 10.0 mi SW 23.0 mph - N/A   Clear
11:29 PM 19.4 °F 1.8 °F 19.4 °F 100% 30.06 in 10.0 mi SW 25.3 mph - N/A   Clear